Showing default

YAOGAN-30 V, 46808

Orbit data source: Space-Track

YAOGAN-30 V, 46808 is a payload satellite owned by PLA SSF (CN) in LEO that was launched on Mon, 26 Oct 2020 UTC via a CHANG ZHENG 2C launch vehicle from the Xichang Space Center, China (XSC). Payload-class satellites include a variety of spacecraft equipped with specific instruments for various scientific and technological missions. These include communications satellites like Starlink; space stations such as the ISS; scientific satellites like the Hubble; Earth observation satellites from companies like Planet Labs, Umbra, and HawkEye 360; GPS; miniature CubeSats for education and research; and military/defense satellites.

Loading next visibility...
Identifier
46808, 2020-076B
Orbit
LEO
Country
Flag of CNCN / PRC
Related business
Manufacturer
SECM
Mission
Operational Defense Sigint
Bus & Motor
Unknown
Mass
~500 kg wet, ~500 kg dry
Launch date (UTC)
2020-10-26 (6 years ago)
Launch vehicle
CHANG ZHENG 2C
Launch site
Xichang Space Center, China (XSC)
Object type
Payload
Rocket body
Debris
Shape & HBR
Box + 2 Pan, 0.5 m
Radar Cross Section
0.446 m², Large (>1 m²)

Expand to show TLE details & history
Last TLE update: 1 day ago

TLE from 1 day ago
0 YAOGAN-30 V
1 46808U 20076B   26172.41020183  .00002051  00000-0  15261-3 0  9994
2 46808  34.9951  65.2453 0000766 322.6831  37.3824 15.02728439308861
Epoch: 2026-06-21T09:50Z
TLE epoch observation values (Epoch: 2026-06-21T09:50:41.438Z)
Latitude
Longitude
7.96177°
Altitude
556.981 km
Speed
7.586 km/s
True Right ascension
04h 20m 58s
True Declination
0° 00' 00"
Sunlit
Object was in daylight at epoch
Visualization orbit readout
Latitude
Unknown
Longitude
Unknown
Altitude
Unknown
Speed
Unknown
Apparent Right ascension
Unknown
Apparent Declination
Unknown
Sunlit
N/A
Visualization observer readout
Local Sidereal Time
21:37:37
Azimuth
Unknown
Elevation
Unknown
Doppler factor
Unknown
Orbital elements
Apogee altitude
562.241 km
Perigee altitude
561.178 km
Semi-major axis
6,939.846 km
Eccentricity
0.00008
Inclination
34.9951°
RAAN
65.2453°
Arg. of periapsis
322.6831°
True anomaly
37.38773°
Mean anomaly
37.3824°
Eccentric anomaly
37.38506°
Mean motion
3.75421 °/min
Orbital period
95.89 mins
BSTAR
0.00015261
Loading maneuver chart data...
Computing Atmospheric mass density...
Loading historical data...
Loading historical data...
Loading historical data...
Loading historical data...
Loading historical data...
Loading historical data...
Loading historical data...
Other satellites on launch #76 in the year 2020 (2020-10-26 UTC)

Documentation

Showing up to 5 results
|